EHI
0 0 0 0 0 0 0 0 0 0 0 0 0 0 0 0 0 0 0 0 0 0 0 0 0 0 0 1 4 13 23 30 27 17 8 4 1 0 0 0 0 0 0 0
0 0 0 0 0 0 0 0 0 0 0 0 0 0 0 0 0 0 0 0 0 0 0 0 0 0 1 1 5 16 30 39 38 26 14 5 1 0 0 0 0 0 0 0
0 0 0 0 0 0 0 0 0 0 0 0 0 0 0 0 0 0 0 0 0 0 0 0 0 0 2 3 9 21 38 49 48 38 24 12 5 2 1 0 0 0 0 0
0 0 0 0 0 0 0 0 0 0 0 0 0 0 0 0 0 0 0 0 0 0 0 0 0 1 5 10 19 32 45 51 48 39 28 19 11 5 2 0 0 0 0 0
0 0 0 0 0 0 0 0 0 0 0 0 0 0 0 0 0 0 0 0 0 0 0 0 0 3 12 24 36 46 51 47 38 28 22 17 12 6 1 0 0 0 0 0
0 0 0 0 0 0 0 0 0 0 0 0 0 0 0 0 0 0 0 0 0 0 0 0 1 6 17 31 43 48 47 35 21 14 12 10 7 3 0 0 0 0 0 0
0 0 0 0 0 0 0 0 0 0 0 0 0 0 0 0 0 0 0 0 0 0 0 0 2 6 13 20 28 31 28 19 9 4 4 3 2 1 0 0 0 0 0 0
0 0 0 0 0 0 0 0 0 0 0 0 0 0 0 0 0 0 0 0 0 0 0 0 1 3 4 6 9 11 11 8 4 1 0 0 0 0 0 0 0 0 0 0
0 0 0 0 0 0 0 0 0 0 0 0 0 0 0 0 0 0 0 0 0 0 0 0 0 0 0 1 2 3 5 4 2 0 0 0 0 0 0 0 0 0 0 0
0 0 0 0 0 0 0 0 0 0 0 0 0 0 0 0 0 0 0 0 0 0 0 0 0 0 0 0 1 1 1 1 0 0 0 0 0 0 0 0 0 0 0 0
0 0 0 0 0 0 0 0 0 0 0 0 0 0 0 0 0 0 0 0 0 0 0 0 0 0 0 0 0 0 0 0 0 0 0 0 0 0 0 0 0 0 0 0
0 0 0 0 0 0 0 0 0 0 0 0 0 0 0 0 0 0 0 0 0 0 0 0 0 0 0 0 0 0 0 0 0 0 0 0 0 0 0 0 0 0 0 0
0 0 0 0 0 0 0 0 0 0 0 0 0 0 0 0 0 0 0 0 0 0 0 0 0 0 0 0 0 0 0 0 0 0 0 0 0 0 0 0 0 0 0 0
0 0 0 0 0 0 0 0 0 0 0 0 0 0 0 0 0 0 0 0 0 0 0 0 0 0 0 0 0 0 0 0 0 0 0 0 0 0 0 0 0 0 0 0
0 0 0 0 0 0 0 0 0 0 0 0 0 0 0 0 0 0 0 0 0 0 0 0 0 0 0 0 0 0 0 0 0 0 0 0 0 0 0 0 0 0 0 0
0 0 0 0 0 0 0 0 0 0 0 0 0 0 0 0 0 0 0 0 0 0 0 0 0 0 0 0 0 0 0 0 0 0 0 0 0 0 0 0 0 0 0 0
0 0 0 0 0 0 0 0 0 0 0 0 0 0 0 0 0 0 0 0 0 0 0 0 0 0 0 0 0 0 0 0 0 0 0 0 0 0 0 0 0 0 0 0
0 0 0 0 0 0 0 0 0 0 0 0 0 0 0 0 0 0 0 0 0 0 0 0 0 0 0 0 0 0 0 0 0 0 0 0 0 0 0 0 0 0 0 0
0 0 0 0 0 0 0 0 0 0 0 0 0 0 0 0 0 0 0 0 0 0 0 0 0 0 0 0 0 0 0 0 0 0 0 0 0 0 0 0 0 0 0 0
0 0 0 0 0 0 0 0 0 0 0 0 0 0 0 0 0 0 0 0 0 0 0 0 0 0 0 0 0 0 0 0 0 0 0 0 0 0 0 0 0 0 0 0
0 0 0 0 0 0 0 0 0 0 0 0 0 0 0 0 0 0 0 0 0 0 0 0 0 0 0 0 0 0 0 0 0 0 0 0 0 0 0 0 0 0 0 0
0 0 0 0 0 0 0 0 0 0 0 0 0 0 0 0 0 0 0 0 0 0 0 0 0 0 0 0 0 0 0 0 0 0 0 0 0 0 0 0 0 0 0 0
0 0 0 0 0 0 0 0 0 0 0 0 0 0 0 0 0 0 0 0 0 0 0 0 0 0 0 0 0 0 0 0 0 0 0 0 0 0 0 0 0 0 0 0
0 0 0 0 0 0 0 0 0 0 0 0 0 0 0 0 0 0 0 0 0 0 0 0 0 0 0 0 0 0 0 0 0 0 0 0 0 0 0 0 0 0 0 0
0 0 0 0 0 0 0 0 0 0 0 0 0 0 0 0 0 0 0 0 0 0 0 0 0 0 0 0 0 0 0 0 0 0 0 0 0 0 0 0 0 0 0 0
0 0 0 0 0 0 0 0 0 0 0 0 0 0 0 0 0 0 0 0 0 0 0 0 0 0 0 0 0 0 0 0 0 0 0 0 0 0 0 0 0 0 0 0
Wind_Speed
4 4 1 3 3 2 2 2 4 5 2 1 3 4 6 7 8 9 8 8 9 10 9 9 10 12 13 13 14 14 13 11 9 7 6 5 5 4 4 4 5 6 6 7
5 2 4 1 1 1 2 2 4 4 2 1 3 3 3 6 7 8 9 11 11 13 12 9 9 10 14 16 16 15 14 12 11 8 6 3 3 2 2 2 4 5 6 6
1 3 3 2 1 1 2 4 4 4 2 3 3 4 4 4 5 9 10 10 11 13 15 13 9 8 10 13 14 12 12 10 9 7 4 3 3 2 2 3 3 4 5 5
3 4 4 4 3 1 5 5 4 2 1 3 2 3 4 6 8 12 15 15 15 16 15 12 9 5 6 8 8 8 9 9 8 8 5 5 4 4 4 3 2 3 4 5
4 5 6 6 5 3 3 3 1 0 2 1 1 2 5 6 9 13 15 15 16 16 14 13 10 5 2 2 5 7 9 8 7 6 5 3 3 3 2 2 3 3 3 4
5 4 5 4 4 3 3 4 4 4 4 1 3 3 3 4 8 13 14 15 15 15 14 13 11 9 8 8 8 10 11 9 5 4 2 4 5 4 3 3 3 2 1 2
9 7 7 6 7 7 7 5 4 5 3 4 1 3 1 3 7 9 13 14 14 13 12 12 12 10 9 9 9 9 9 7 4 2 3 4 5 5 4 3 3 2 1 1
6 6 7 7 4 4 4 2 2 3 3 3 1 2 2 3 6 8 9 11 12 12 11 10 9 8 7 8 8 8 6 4 3 3 4 3 4 3 2 3 3 3 2 2
4 4 5 5 5 4 5 3 1 1 2 2 2 1 1 9 13 14 14 15 14 13 11 10 7 6 6 6 6 5 3 2 2 3 3 3 3 3 2 2 2 2 2 1
1 3 5 6 6 7 3 1 4 2 1 2 2 2 6 13 16 17 16 16 15 13 12 9 6 5 4 5 4 5 2 2 2 2 2 2 2 2 2 3 3 2 2 2
3 2 6 6 6 6 6 6 4 1 1 1 1 2 6 9 12 14 15 14 14 13 11 8 6 5 4 5 4 3 2 1 2 3 3 4 3 3 3 2 2 2 2 2
2 4 3 3 3 4 3 3 3 2 3 1 0 2 6 9 10 11 13 14 14 13 10 7 6 7 6 5 3 2 2 1 2 3 4 4 4 4 3 2 1 1 2 2
3 5 5 8 7 8 6 6 5 2 1 1 1 2 7 10 12 13 15 15 14 14 12 10 9 8 7 5 5 4 2 1 3 4 4 3 3 3 2 1 1 1 1 2
6 5 3 1 3 4 6 10 9 4 2 2 3 4 11 16 16 16 16 15 13 13 12 12 11 10 8 8 7 6 4 2 3 3 4 4 3 2 1 1 1 1 1 2
6 5 4 3 3 4 9 12 12 10 7 5 5 6 10 14 13 12 13 13 14 14 13 12 11 9 9 9 9 7 7 5 4 4 5 4 3 3 3 2 2 1 1 2
4 4 3 1 1 4 9 14 12 10 8 7 8 7 11 12 9 10 13 14 14 13 12 10 10 9 9 9 8 8 8 7 6 7 6 5 4 4 4 3 3 3 2 2
3 4 3 1 3 2 7 9 8 6 8 7 7 8 13 12 13 11 11 12 12 11 10 10 9 8 7 7 7 8 8 8 8 8 7 6 5 5 5 5 5 4 4 3
4 4 3 2 3 4 2 2 3 3 4 5 6 8 10 11 11 6 5 10 11 11 9 8 7 6 6 6 7 7 7 8 8 7 7 7 6 6 5 5 5 5 3 3
3 5 4 3 3 0 2 2 2 2 3 4 6 10 11 13 6 4 7 10 8 7 6 5 5 4 4 5 6 6 7 6 7 7 7 6 6 5 6 6 6 4 4 4
6 5 5 4 3 2 4 2 0 1 2 3 5 7 9 9 7 7 12 13 11 9 6 5 4 3 4 5 5 5 6 6 6 6 5 5 6 6 6 6 5 4 4 4
4 5 4 3 2 4 5 2 2 2 4 5 4 5 5 4 4 9 13 10 8 7 6 5 4 3 4 4 4 5 5 5 4 4 5 6 6 6 6 6 5 6 6 6
3 2 2 3 2 5 4 3 4 5 3 3 4 4 4 6 8 8 9 9 9 8 6 5 4 4 4 3 3 4 4 4 3 3 5 5 6 6 6 6 7 7 7 7
5 6 6 7 6 5 4 5 4 4 3 3 4 5 5 6 6 7 8 9 8 7 6 5 4 5 4 2 1 2 3 2 2 3 4 4 5 5 6 7 7 6 7 6
3 3 3 3 5 4 4 3 3 3 4 5 5 6 4 5 7 7 7 8 8 7 6 5 4 4 4 3 1 2 2 1 2 2 2 3 3 4 5 5 5 5 6 6
6 6 4 4 4 2 4 5 4 3 4 4 4 3 4 5 6 5 6 7 7 6 6 4 4 5 5 4 3 2 1 1 1 1 2 2 2 2 3 4 4 5 4 5
7 9 8 8 8 7 6 6 4 3 3 3 3 4 4 4 5 5 6 6 6 7 6 5 5 5 5 4 4 2 2 2 2 1 1 1 1 1 1 2 2 3 4 7
Wind_Direction
28 55 323 249 211 201 185 215 260 264 281 326 286 301 334 2 20 7 354 341 328 309 288 274 249 228 218 210 204 202 197 189 175 171 176 182 198 197 201 203 199 197 196 194
32 334 274 261 180 165 193 244 267 284 331 307 304 312 359 30 28 12 1 350 337 327 320 301 272 239 220 213 206 201 197 188 183 184 174 162 153 178 198 200 200 199 194 190
247 293 339 52 25 299 251 224 243 261 346 25 349 333 6 357 6 8 6 353 344 337 326 315 296 255 227 216 206 196 190 179 172 159 137 113 104 102 146 194 205 202 194 193
14 351 27 33 4 332 278 271 245 239 35 304 26 296 319 338 345 1 358 354 348 342 335 327 318 291 242 219 195 179 163 148 142 142 155 164 173 193 202 189 191 190 191 194
358 11 36 23 334 333 282 330 13 148 163 314 340 208 304 348 355 348 345 346 345 344 343 345 347 344 1 93 116 117 107 105 115 128 146 169 200 211 155 146 176 188 193 198
0 5 41 353 331 359 348 25 45 46 79 254 241 173 319 1 342 331 336 340 342 343 347 354 2 23 45 63 82 94 97 89 91 104 136 204 205 188 165 171 178 183 189 207
352 5 2 359 2 4 30 46 10 351 9 249 268 131 85 352 337 327 328 331 335 341 349 356 6 20 41 57 67 77 84 86 86 129 192 207 196 185 181 174 179 173 175 205
13 342 358 5 11 335 353 80 156 244 247 286 347 161 151 8 337 329 328 330 336 345 348 354 6 19 33 52 61 65 70 87 121 174 191 180 174 170 164 166 164 172 183 199
11 307 337 0 7 32 10 4 310 219 272 265 285 56 355 358 354 350 348 348 343 342 346 353 4 24 38 46 58 63 73 103 156 170 151 142 143 141 148 148 143 150 163 164
56 307 321 329 17 23 44 3 36 37 298 269 304 40 358 347 344 342 345 344 338 339 346 351 357 15 35 55 49 45 52 122 142 125 112 115 119 126 129 123 124 131 130 115
65 62 329 11 26 347 1 15 13 330 236 228 259 58 13 342 335 338 341 342 340 340 345 350 1 17 23 40 45 17 345 89 104 104 100 95 94 103 104 103 119 133 127 132
68 93 348 326 336 12 47 20 2 338 311 304 184 53 5 344 343 350 350 350 349 349 355 5 15 28 27 26 24 354 311 99 116 114 98 97 99 100 101 102 123 144 150 154
79 71 16 351 355 9 12 354 338 286 257 340 40 16 357 356 3 4 359 356 355 358 14 25 27 28 24 19 15 14 352 99 115 113 108 98 87 88 92 98 120 163 172 172
94 79 97 54 325 337 352 1 5 15 34 30 39 13 358 1 359 358 356 356 359 9 22 28 29 24 20 19 20 19 20 52 105 116 107 89 77 76 69 46 25 344 249 219
76 85 80 94 78 49 34 18 20 37 31 41 31 23 358 346 343 344 352 357 6 12 18 20 21 19 21 25 27 29 35 42 61 67 65 62 48 38 40 31 18 349 290 270
62 105 113 96 351 40 35 20 17 24 21 23 27 18 341 332 339 352 1 2 4 3 6 11 15 19 22 21 21 28 32 34 45 53 50 43 35 26 20 11 9 12 350 316
64 102 102 6 311 8 21 2 8 23 25 15 12 336 328 337 343 346 351 357 357 356 357 2 3 5 9 12 18 26 25 31 41 41 36 29 26 22 11 7 12 10 357 340
109 94 101 82 54 51 297 292 340 356 29 14 344 332 335 327 311 306 350 355 349 348 348 348 350 354 359 8 16 21 25 29 33 31 26 20 18 14 7 7 1 355 352 342
90 120 102 93 90 91 311 351 356 346 337 346 338 336 339 334 331 345 355 353 338 329 328 327 334 340 353 5 6 23 25 23 27 22 18 12 12 10 9 5 353 350 350 347
47 72 98 99 111 210 249 276 235 183 308 314 330 328 334 354 17 328 330 333 329 331 328 328 331 342 357 355 5 25 17 18 14 6 7 8 12 16 13 4 357 352 352 349
24 34 72 114 154 253 244 255 124 141 260 297 304 303 317 328 261 280 307 316 319 321 323 330 337 339 334 342 11 18 7 359 344 358 14 17 14 17 17 12 11 9 12 17
166 143 164 142 169 247 221 152 175 213 238 268 276 282 291 289 288 298 311 322 329 332 332 333 334 326 324 342 13 7 347 330 353 25 28 24 21 22 22 22 20 21 21 25
188 188 185 187 210 233 204 202 216 194 228 258 263 281 293 296 304 313 316 324 328 330 329 329 325 321 322 332 357 345 325 339 46 53 38 28 28 29 27 29 25 23 23 24
243 155 152 229 257 242 227 231 241 218 230 256 267 280 284 289 300 309 314 321 327 329 325 325 326 323 314 309 296 282 311 52 85 65 37 28 33 32 31 32 28 27 23 21
214 168 175 231 254 236 242 229 233 244 255 273 288 280 283 292 301 303 309 313 317 319 315 315 309 296 289 287 277 269 221 146 104 72 39 29 37 41 37 37 29 22 22 17
194 172 174 211 206 183 216 219 214 230 258 280 297 308 312 304 299 304 305 304 309 313 314 315 307 295 288 278 262 251 198 171 151 108 22 8 16 38 39 25 17 20 21 25